Date String (YYYY-MM-DD hh:mm:ss) UTC,Instrument flags,absolute air pressure of the measurement (hPa),sample flow rate (lpm),inlet stack bypass flow (lpm),air temperature of the measurement (°C),ambient temperature measured by the external sensor (°C),aerosol sample conditioner tube jacket temperature (°C),OPC LED temperature (°C),internal box temperature (°C),relative humidity of the measurement (%),span deviation,mass concentration of particles derived from Lorenz-Mie calculation of OPC scattering (μg/m³),mass concentration of particles derived from Lorenz-Mie calculation of OPC scattering (μg/m³),mass concentration of particles derived from Lorenz-Mie calculation of OPC scattering (μg/m³)
DateTimeUTC,F1_M11,P_M11,Q1_M11,Q2_M11,T1_M11,T2_M11,T3_M11,T4_M11,T5_M11,U1_M11,ZSPAN_M11,X2_M11,X0_M11,X1_M11
2023-09-09 19:00:00,SystemResetWarning,0836.9,5.00,000.00,027.9,025.8,000.0,036.1,029.5,19.0,0000.0,0004.05,0014.65,0002.73
2023-09-09 19:01:00,SystemResetWarning,0836.9,4.99,000.00,027.9,024.5,000.0,036.0,029.2,19.2,0000.0,0004.13,0014.31,0002.75
2023-09-09 19:02:00,SystemResetWarning,0836.9,5.02,000.00,027.8,024.5,000.0,035.9,029.3,19.2,0000.0,0004.14,0012.71,0002.77
2023-09-09 19:03:00,SystemResetWarning,0836.9,5.00,000.00,027.8,024.8,000.0,035.9,029.2,19.3,0000.0,0004.12,0013.30,0002.78
2023-09-09 19:04:00,SystemResetWarning,0837.0,4.99,000.00,027.7,025.2,000.0,036.0,029.2,19.3,0000.0,0004.09,0013.23,0002.78
2023-09-09 19:05:00,SystemResetWarning,0836.9,5.01,000.00,027.7,025.6,000.0,036.0,029.3,18.5,0000.0,0004.07,0013.30,0002.76
2023-09-09 19:06:00,SystemResetWarning,0836.9,5.00,000.00,027.8,025.9,000.0,036.0,029.4,17.9,0000.0,0004.02,0012.64,0002.74
2023-09-09 19:07:00,SystemResetWarning,0836.8,4.99,000.00,027.8,026.3,000.0,036.0,029.4,17.9,0000.0,0003.95,0012.09,0002.73
2023-09-09 19:08:00,SystemResetWarning,0836.9,5.00,000.00,027.8,026.6,000.0,036.1,029.5,18.0,0000.0,0003.92,0011.48,0002.73
2023-09-09 19:09:00,SystemResetWarning,0836.8,5.00,000.00,027.9,026.8,000.0,036.1,029.6,18.1,0000.0,0003.94,0011.08,0002.76
2023-09-09 19:10:00,SystemResetWarning,0836.8,4.98,000.00,027.9,026.0,000.0,036.1,029.5,17.8,0000.0,0003.95,0011.17,0002.79
2023-09-09 19:11:00,SystemResetWarning,0836.8,5.00,000.00,027.9,024.5,000.0,036.0,029.1,16.5,0000.0,0003.97,0011.23,0002.83
2023-09-09 19:12:00,SystemResetWarning,0836.7,5.02,000.00,027.8,024.3,000.0,035.9,029.1,16.4,0000.0,0003.96,0011.87,0002.88
2023-09-09 19:13:00,SystemResetWarning,0836.7,4.99,000.00,027.7,024.6,000.0,035.9,029.1,17.3,0000.0,0003.98,0012.26,0002.93
2023-09-09 19:14:00,SystemResetWarning,0836.7,5.00,000.00,027.7,025.0,000.0,036.0,029.1,17.1,0000.0,0004.04,0012.40,0002.98
2023-09-09 19:15:00,SystemResetWarning,0836.7,5.01,000.00,027.7,025.4,000.0,036.0,029.2,16.9,0000.0,0004.13,0013.59,0003.02
2023-09-09 19:16:00,SystemResetWarning,0836.8,5.00,000.00,027.7,025.8,000.0,036.0,029.3,17.1,0000.0,0004.20,0015.05,0003.07
2023-09-09 19:17:00,SystemResetWarning,0836.8,4.99,000.00,027.8,026.1,000.0,036.0,029.4,17.2,0000.0,0004.30,0015.37,0003.12
2023-09-09 19:18:00,SystemResetWarning,0836.8,5.00,000.00,027.8,026.5,000.0,036.1,029.5,16.9,0000.0,0004.42,0015.46,0003.15
2023-09-09 19:19:00,SystemResetWarning,0836.8,5.00,000.00,027.9,026.7,000.0,036.1,029.6,16.3,0000.0,0004.41,0016.36,0003.17
2023-09-09 19:20:00,SystemResetWarning,0836.8,4.98,000.00,027.9,026.2,000.0,036.1,029.5,16.0,0000.0,0004.36,0016.46,0003.18
2023-09-09 19:21:00,SystemResetWarning,0836.8,5.00,000.00,027.8,024.6,000.0,036.0,029.2,15.8,0000.8,0004.32,0016.23,0003.18
2023-09-09 19:22:00,SystemResetWarning,0836.7,5.01,000.00,027.8,024.3,000.0,035.9,029.1,15.7,0001.0,0004.31,0016.34,0003.18
2023-09-09 19:23:00,SystemResetWarning,0836.7,5.00,000.00,027.7,024.6,000.0,035.9,029.1,15.6,0001.4,0004.28,0015.78,0003.18
2023-09-09 19:24:00,SystemResetWarning,0836.8,5.00,000.00,027.7,024.9,000.0,035.9,029.1,16.1,0001.1,0004.23,0015.21,0003.17
2023-09-09 19:25:00,SystemResetWarning,0836.7,5.00,000.00,027.7,025.4,000.0,036.0,029.2,16.6,0001.4,0004.20,0015.09,0003.18
2023-09-09 19:26:00,SystemResetWarning,0836.7,5.00,000.00,027.7,025.8,000.0,036.0,029.3,16.7,0000.9,0004.23,0015.31,0003.19
2023-09-09 19:27:00,SystemResetWarning,0836.7,5.00,000.00,027.7,026.1,000.0,036.0,029.4,16.4,0001.6,0004.22,0013.41,0003.21
2023-09-09 19:28:00,SystemResetWarning,0836.7,4.99,000.00,027.8,026.4,000.0,036.0,029.5,17.2,0002.2,0004.25,0013.27,0003.22
2023-09-09 19:29:00,SystemResetWarning,0836.6,5.00,000.00,027.8,026.6,000.0,036.0,029.6,18.3,0002.7,0004.19,0012.78,0003.23
2023-09-09 19:30:00,SystemResetWarning,0836.6,4.99,000.00,027.8,025.4,000.0,036.0,029.4,18.2,0003.0,0004.21,0013.09,0003.23
2023-09-09 19:31:00,SystemResetWarning,0836.6,5.02,000.00,027.8,024.2,000.0,035.9,029.1,18.1,0002.8,0004.27,0012.75,0003.24
2023-09-09 19:32:00,SystemResetWarning,0836.6,5.00,000.00,027.7,024.3,000.0,035.9,029.1,17.2,0002.8,0004.34,0013.98,0003.24
2023-09-09 19:33:00,SystemResetWarning,0836.6,4.98,000.00,027.7,024.6,000.0,035.9,029.1,17.0,0003.1,0004.35,0014.23,0003.24
2023-09-09 19:34:00,SystemResetWarning,0836.6,5.00,000.00,027.6,025.0,000.0,035.9,029.1,17.6,0003.2,0004.36,0014.37,0003.23
2023-09-09 19:35:00,SystemResetWarning,0836.6,5.01,000.00,027.6,025.4,000.0,035.9,029.2,17.7,0003.2,0004.35,0014.72,0003.23
2023-09-09 19:36:00,SystemResetWarning,0836.6,5.01,000.00,027.7,025.8,000.0,035.9,029.3,17.6,0003.3,0004.32,0014.30,0003.22
2023-09-09 19:37:00,SystemResetWarning,0836.6,5.00,000.00,027.7,026.2,000.0,036.0,029.4,17.4,0003.0,0004.27,0013.89,0003.21
2023-09-09 19:38:00,SystemResetWarning,0836.6,5.00,000.00,027.8,026.5,000.0,036.0,029.5,17.7,0002.4,0004.23,0014.67,0003.19
2023-09-09 19:39:00,SystemResetWarning,0836.6,5.00,000.00,027.8,026.7,000.0,036.0,029.5,17.7,0000.0,0004.22,0014.91,0003.18
2023-09-09 19:40:00,SystemResetWarning,0836.6,4.98,000.00,027.8,025.7,000.0,036.0,029.4,17.7,0000.4,0004.26,0015.73,0003.19
2023-09-09 19:41:00,SystemResetWarning,0836.6,5.01,000.00,027.8,024.4,000.0,035.9,029.1,17.3,0000.4,0004.26,0015.36,0003.19
2023-09-09 19:42:00,SystemResetWarning,0836.6,5.01,000.00,027.7,024.3,000.0,035.8,029.1,16.9,0000.0,0004.28,0015.28,0003.19
2023-09-09 19:43:00,SystemResetWarning,0836.6,5.00,000.00,027.7,024.6,000.0,035.8,029.0,16.9,0000.0,0004.31,0014.51,0003.19
2023-09-09 19:44:00,SystemResetWarning,0836.6,5.00,000.00,027.6,025.0,000.0,035.9,029.1,17.3,0000.0,0004.28,0013.67,0003.19
2023-09-09 19:45:00,SystemResetWarning,0836.6,5.01,000.00,027.6,025.4,000.0,035.9,029.2,17.2,0000.0,0004.28,0013.93,0003.19
2023-09-09 19:46:00,SystemResetWarning,0836.6,4.99,000.00,027.7,025.8,000.0,035.9,029.3,16.6,0000.0,0004.28,0015.04,0003.17
2023-09-09 19:47:00,SystemResetWarning,0836.6,5.00,000.00,027.7,026.1,000.0,035.9,029.4,15.8,0000.0,0004.32,0015.24,0003.14
2023-09-09 19:48:00,SystemResetWarning,0836.6,5.01,000.00,027.8,026.5,000.0,036.0,029.5,15.9,0000.0,0004.30,0014.97,0003.11
2023-09-09 19:49:00,SystemResetWarning,0836.6,4.99,000.00,027.8,026.7,000.0,036.0,029.6,17.5,0000.0,0004.29,0013.93,0003.09
2023-09-09 19:50:00,SystemResetWarning,0836.6,4.98,000.00,027.8,026.0,000.0,036.0,029.4,17.5,0000.0,0004.25,0013.94,0003.05
2023-09-09 19:51:00,SystemResetWarning,0836.6,5.01,000.00,027.8,024.5,000.0,035.9,029.1,17.3,0000.0,0004.14,0013.23,0002.98
2023-09-09 19:52:00,SystemResetWarning,0836.6,5.01,000.00,027.7,024.3,000.0,035.8,029.1,17.2,0000.0,0004.09,0013.68,0002.92
2023-09-09 19:53:00,SystemResetWarning,0836.6,5.01,000.00,027.7,024.6,000.0,035.8,029.1,17.5,0000.0,0004.08,0015.01,0002.88
2023-09-09 19:54:00,SystemResetWarning,0836.7,5.01,000.00,027.6,025.0,000.0,035.9,029.1,18.1,0000.0,0003.99,0015.29,0002.81
2023-09-09 19:55:00,SystemResetWarning,0836.6,4.99,000.00,027.6,025.4,000.0,035.9,029.2,17.3,0000.0,0003.94,0015.36,0002.76
2023-09-09 19:56:00,SystemResetWarning,0836.6,5.00,000.00,027.7,025.8,000.0,035.9,029.3,16.3,0000.0,0003.91,0015.08,0002.71
2023-09-09 19:57:00,SystemResetWarning,0836.6,5.00,000.00,027.7,026.2,000.0,035.9,029.4,16.0,0000.0,0003.89,0013.80,0002.66
2023-09-09 19:58:00,SystemResetWarning,0836.6,5.00,000.00,027.8,026.5,000.0,036.0,029.5,17.4,0000.0,0003.83,0013.52,0002.64
2023-09-09 19:59:00,SystemResetWarning,0836.6,5.00,000.00,027.8,026.5,000.0,036.0,029.5,17.4,0000.0,0003.85,0013.71,0002.62
